CCA168 ZBAD-ZSPD

Flight info

Callsign CCA168
Flight time 1h 37m
Altitude 33100
Route ELKUR W40 YQG W142 DALIM A593 DPX A470 DALNU W166 ZJ W167 SASAN R343 EKIMU
Aircraft B738/M-SDE2E3FGHIRWXY/LB1

Departure

Time 2026-05-04 09:03
Airport Beijing Daxing International Airport (ZBAD)

Arrival

Time 2026-05-04 10:40
Airport Shanghai Pudong International Airport (ZSPD)
Time Latitude Longitude Altitude Speed Heading
2026-05-04 08:41 39.49859 116.40530 94 ft 0 kts 173°
2026-05-04 08:54 39.49943 116.40508 94 ft 2 kts 153°
2026-05-04 08:55 39.49956 116.40495 94 ft 2 kts 109°
2026-05-04 08:55 39.49957 116.40481 94 ft 0 kts 83°
2026-05-04 08:57 39.50001 116.40625 96 ft 9 kts 17°
2026-05-04 09:01 39.50151 116.42548 95 ft 17 kts 85°
2026-05-04 09:01 39.50096 116.42666 94 ft 16 kts 175°
2026-05-04 09:01 39.50072 116.42668 96 ft 0 kts 174°
2026-05-04 09:02 39.50071 116.42668 95 ft 1 kts 174°
2026-05-04 09:02 39.49968 116.42685 94 ft 46 kts 173°
2026-05-04 09:02 39.49403 116.42777 95 ft 117 kts 172°
2026-05-04 09:02 39.48399 116.42942 204 ft 166 kts 174°
2026-05-04 09:03 39.47271 116.43132 1125 ft 156 kts 181°
2026-05-04 09:03 39.46239 116.43428 1804 ft 160 kts 153°
2026-05-04 09:03 39.45351 116.44261 2036 ft 159 kts 153°
2026-05-04 09:03 39.44411 116.45047 2005 ft 165 kts 153°
2026-05-04 09:04 39.43484 116.45841 1988 ft 165 kts 144°
2026-05-04 09:04 39.42888 116.47110 1986 ft 172 kts 104°
2026-05-04 09:04 39.43012 116.48693 2051 ft 183 kts 86°
2026-05-04 09:04 39.43189 116.50355 2005 ft 186 kts 88°
2026-05-04 09:05 39.43353 116.51996 1999 ft 182 kts 88°
2026-05-04 09:05 39.43518 116.53597 1974 ft 177 kts 87°
2026-05-04 09:05 39.43685 116.55167 1988 ft 177 kts 87°
2026-05-04 09:05 39.43858 116.56780 2005 ft 183 kts 87°
2026-05-04 09:06 39.44038 116.58432 2018 ft 187 kts 87°
2026-05-04 09:07 39.45259 116.70551 2722 ft 241 kts 87°
2026-05-04 09:08 39.45465 116.72815 3154 ft 263 kts 87°
2026-05-04 09:08 39.45567 116.75205 3921 ft 268 kts 102°
2026-05-04 09:08 39.44909 116.77383 4615 ft 261 kts 132°
2026-05-04 09:08 39.43687 116.78738 5247 ft 262 kts 154°
2026-05-04 09:09 39.42055 116.79694 5981 ft 269 kts 161°
2026-05-04 09:09 39.40271 116.80558 6681 ft 278 kts 162°
2026-05-04 09:09 39.38433 116.81446 7420 ft 285 kts 161°
2026-05-04 09:09 39.36568 116.82371 8262 ft 289 kts 161°
2026-05-04 09:10 39.34676 116.83321 9096 ft 293 kts 161°
2026-05-04 09:10 39.32846 116.84245 9832 ft 299 kts 160°
2026-05-04 09:10 39.30920 116.85218 10547 ft 303 kts 160°
2026-05-04 09:10 39.28948 116.86215 11320 ft 306 kts 160°
2026-05-04 09:11 39.26949 116.87226 12093 ft 310 kts 160°
2026-05-04 09:11 39.24924 116.88249 12847 ft 314 kts 160°
2026-05-04 09:11 39.22870 116.89287 13599 ft 319 kts 160°
2026-05-04 09:11 39.20797 116.90334 14292 ft 322 kts 160°
2026-05-04 09:12 39.18706 116.91390 15058 ft 322 kts 159°
2026-05-04 09:12 39.16612 116.92445 15824 ft 324 kts 159°
2026-05-04 09:14 39.01479 117.00056 20426 ft 344 kts 158°
2026-05-04 09:14 38.99240 117.01180 21045 ft 346 kts 158°
2026-05-04 09:14 38.96986 117.02310 21654 ft 348 kts 158°
2026-05-04 09:14 38.94717 117.03448 22233 ft 352 kts 158°
2026-05-04 09:15 38.92428 117.04595 22823 ft 355 kts 158°
2026-05-04 09:15 38.90111 117.05755 23405 ft 358 kts 158°
2026-05-04 09:15 38.87806 117.06905 23878 ft 361 kts 159°
2026-05-04 09:15 38.85347 117.07565 24299 ft 365 kts 181°
2026-05-04 09:17 38.73236 116.88493 27958 ft 370 kts 245°
2026-05-04 09:18 38.72020 116.85574 28394 ft 372 kts 245°
2026-05-04 09:18 38.70788 116.82631 28843 ft 375 kts 245°
2026-05-04 09:18 38.69564 116.79715 29257 ft 377 kts 245°
2026-05-04 09:18 38.68317 116.76749 29680 ft 379 kts 245°
2026-05-04 09:19 38.67064 116.73772 30064 ft 381 kts 246°
2026-05-04 09:19 38.65793 116.70774 30410 ft 384 kts 243°
2026-05-04 09:19 38.64055 116.68128 30688 ft 396 kts 221°
2026-05-04 09:19 38.61630 116.66391 30996 ft 405 kts 201°
2026-05-04 09:20 38.58834 116.65719 31314 ft 411 kts 188°
2026-05-04 09:20 38.56005 116.65405 31620 ft 414 kts 186°
2026-05-04 09:20 38.53123 116.65138 31903 ft 417 kts 186°
2026-05-04 09:20 38.50224 116.64866 32216 ft 418 kts 187°
2026-05-04 09:21 38.47310 116.64569 32526 ft 420 kts 187°
2026-05-04 09:21 38.44392 116.64251 32814 ft 422 kts 187°
2026-05-04 09:21 38.41452 116.63917 33022 ft 426 kts 188°
2026-05-04 09:21 38.38472 116.63573 32998 ft 431 kts 188°
2026-05-04 09:22 38.32567 116.62897 32989 ft 424 kts 188°
2026-05-04 09:22 38.26686 116.63291 33003 ft 427 kts 167°
2026-05-04 09:23 38.20939 116.65437 33005 ft 431 kts 164°
2026-05-04 09:23 38.15178 116.67660 33007 ft 434 kts 165°
2026-05-04 09:25 37.92045 116.76430 33003 ft 430 kts 165°
2026-05-04 09:26 37.86319 116.78610 33005 ft 428 kts 165°
2026-05-04 09:26 37.80626 116.80772 33015 ft 427 kts 165°
2026-05-04 09:27 37.74967 116.82917 33016 ft 427 kts 165°
2026-05-04 09:27 37.69251 116.85081 33019 ft 428 kts 165°
2026-05-04 09:28 37.63527 116.87244 33019 ft 429 kts 165°
2026-05-04 09:28 37.57788 116.89410 33021 ft 430 kts 165°
2026-05-04 09:29 37.52074 116.91563 33021 ft 431 kts 165°
2026-05-04 09:29 37.46305 116.93733 33021 ft 432 kts 165°
2026-05-04 09:30 37.40535 116.95901 33026 ft 432 kts 165°
2026-05-04 09:30 37.34773 116.98062 33026 ft 432 kts 165°
2026-05-04 09:31 37.29057 117.00225 33028 ft 431 kts 163°
2026-05-04 09:31 37.23436 117.02864 33030 ft 431 kts 160°
2026-05-04 09:32 37.17820 117.05557 33041 ft 437 kts 161°
2026-05-04 09:34 36.95345 117.15981 33040 ft 430 kts 161°
2026-05-04 09:34 36.89713 117.18589 33043 ft 432 kts 161°
2026-05-04 09:35 36.84063 117.21037 33032 ft 431 kts 169°
2026-05-04 09:35 36.81114 117.21649 33040 ft 426 kts 180°
2026-05-04 09:35 36.78163 117.21705 33051 ft 423 kts 184°
2026-05-04 09:37 36.59109 117.21423 33052 ft 417 kts 184°
2026-05-04 09:38 36.53307 117.21383 33057 ft 416 kts 184°
2026-05-04 09:38 36.47541 117.21342 33061 ft 416 kts 184°
2026-05-04 09:39 36.41743 117.21489 33052 ft 419 kts 176°
2026-05-04 09:39 36.36053 117.23297 33065 ft 423 kts 166°
2026-05-04 09:40 36.30433 117.25484 33074 ft 423 kts 166°
2026-05-04 09:40 36.24829 117.27620 33067 ft 424 kts 166°
2026-05-04 09:42 36.03152 117.35670 33074 ft 424 kts 166°
2026-05-04 09:43 35.97497 117.37767 33062 ft 424 kts 166°
2026-05-04 09:43 35.91782 117.39906 33088 ft 439 kts 166°
2026-05-04 09:44 35.85809 117.42141 33085 ft 457 kts 166°
2026-05-04 09:46 35.60189 117.51702 33073 ft 493 kts 166°
2026-05-04 09:46 35.53615 117.54145 33080 ft 493 kts 166°
2026-05-04 09:47 35.47077 117.56569 33085 ft 492 kts 166°
2026-05-04 09:49 35.20927 117.66221 33094 ft 489 kts 166°
2026-05-04 09:51 34.98124 117.74573 33089 ft 488 kts 167°
2026-05-04 09:51 34.91621 117.76938 33097 ft 487 kts 167°
2026-05-04 09:52 34.85154 117.79289 33090 ft 487 kts 167°
2026-05-04 09:52 34.78652 117.81611 33097 ft 486 kts 167°
2026-05-04 09:53 34.72158 117.83939 33102 ft 486 kts 167°
2026-05-04 09:53 34.65674 117.86271 33095 ft 486 kts 167°
2026-05-04 09:54 34.59229 117.88584 33098 ft 486 kts 167°
2026-05-04 09:54 34.52742 117.90906 33094 ft 485 kts 167°
2026-05-04 09:55 34.46255 117.93224 33102 ft 485 kts 167°
2026-05-04 09:55 34.39817 117.95521 33091 ft 485 kts 167°
2026-05-04 09:56 34.33337 117.97830 33099 ft 484 kts 167°
2026-05-04 09:56 34.26867 118.00133 33096 ft 484 kts 167°
2026-05-04 09:57 34.20415 118.02488 33093 ft 484 kts 167°
2026-05-04 09:57 34.14011 118.04845 33096 ft 483 kts 167°
2026-05-04 09:58 34.07560 118.07206 33094 ft 483 kts 167°
2026-05-04 09:58 34.01127 118.09553 33096 ft 483 kts 167°
2026-05-04 10:00 33.78889 118.18618 33090 ft 491 kts 150°
2026-05-04 10:00 33.76056 118.20934 33105 ft 491 kts 148°
2026-05-04 10:04 33.36590 118.53786 33102 ft 495 kts 150°
2026-05-04 10:04 33.30901 118.58461 33103 ft 495 kts 150°
2026-05-04 10:05 33.25229 118.63116 33107 ft 495 kts 150°
2026-05-04 10:05 33.19633 118.67706 33099 ft 487 kts 150°
2026-05-04 10:06 33.14095 118.72303 33108 ft 484 kts 150°
2026-05-04 10:06 33.08559 118.76905 33109 ft 484 kts 150°
2026-05-04 10:08 32.89179 118.92936 33115 ft 487 kts 152°
2026-05-04 10:08 32.83718 118.97439 33120 ft 488 kts 152°
2026-05-04 10:09 32.78130 119.02074 33113 ft 489 kts 152°
2026-05-04 10:09 32.72539 119.06720 33125 ft 490 kts 152°
2026-05-04 10:10 32.66961 119.11346 33121 ft 491 kts 152°
2026-05-04 10:10 32.61340 119.15996 33124 ft 492 kts 152°
2026-05-04 10:11 32.55743 119.20619 33124 ft 493 kts 153°
2026-05-04 10:11 32.50112 119.25265 33124 ft 493 kts 153°
2026-05-04 10:12 32.44481 119.29903 33126 ft 493 kts 153°
2026-05-04 10:12 32.38844 119.34537 33131 ft 494 kts 153°
2026-05-04 10:13 32.33184 119.39184 33132 ft 494 kts 153°
2026-05-04 10:13 32.27543 119.43807 33134 ft 493 kts 154°
2026-05-04 10:14 32.21925 119.48407 33133 ft 493 kts 154°
2026-05-04 10:16 31.99399 119.66776 33136 ft 491 kts 155°
2026-05-04 10:16 31.94001 119.71793 33142 ft 505 kts 143°
2026-05-04 10:17 31.91704 119.74985 33138 ft 517 kts 133°
2026-05-04 10:17 31.89668 119.78490 33158 ft 518 kts 131°
2026-05-04 10:19 31.75621 120.03241 30361 ft 522 kts 132°
2026-05-04 10:19 31.73558 120.06791 29454 ft 525 kts 132°
2026-05-04 10:19 31.71506 120.10326 28692 ft 523 kts 131°
2026-05-04 10:19 31.69503 120.13784 28129 ft 517 kts 131°
2026-05-04 10:20 31.67487 120.17263 27527 ft 512 kts 131°
2026-05-04 10:20 31.65490 120.20704 26941 ft 507 kts 130°
2026-05-04 10:20 31.63512 120.24105 26369 ft 502 kts 130°
2026-05-04 10:20 31.61548 120.27479 25802 ft 497 kts 130°
2026-05-04 10:21 31.59603 120.30826 25242 ft 493 kts 128°
2026-05-04 10:21 31.58024 120.34413 24663 ft 498 kts 114°
2026-05-04 10:21 31.56925 120.38203 24123 ft 495 kts 111°
2026-05-04 10:21 31.55862 120.42032 23528 ft 492 kts 111°
2026-05-04 10:22 31.53724 120.49611 22271 ft 483 kts 111°
2026-05-04 10:22 31.52646 120.53315 21693 ft 478 kts 111°
2026-05-04 10:22 31.51560 120.56995 21138 ft 473 kts 111°
2026-05-04 10:23 31.50483 120.60619 20581 ft 468 kts 111°
2026-05-04 10:23 31.49414 120.64209 20033 ft 463 kts 111°
2026-05-04 10:25 31.42186 120.88107 16104 ft 428 kts 111°
2026-05-04 10:25 31.41168 120.91364 15576 ft 423 kts 111°
2026-05-04 10:25 31.40163 120.94586 15048 ft 419 kts 111°
2026-05-04 10:25 31.39198 120.97724 14923 ft 407 kts 110°
2026-05-04 10:26 31.38249 121.00853 14885 ft 407 kts 110°
2026-05-04 10:26 31.37297 121.03996 14840 ft 410 kts 110°
2026-05-04 10:26 31.36343 121.07139 14304 ft 414 kts 110°
2026-05-04 10:26 31.35379 121.10300 13831 ft 411 kts 110°
2026-05-04 10:27 31.34430 121.13428 13357 ft 404 kts 109°
2026-05-04 10:27 31.33505 121.16509 12939 ft 397 kts 109°
2026-05-04 10:27 31.32607 121.19506 12541 ft 390 kts 109°
2026-05-04 10:27 31.31745 121.22381 12177 ft 385 kts 109°
2026-05-04 10:28 31.30863 121.25319 11797 ft 379 kts 109°
2026-05-04 10:28 31.29993 121.28210 11427 ft 374 kts 109°
2026-05-04 10:28 31.29135 121.31057 11036 ft 369 kts 109°
2026-05-04 10:28 31.28570 121.32929 10774 ft 366 kts 108°
2026-05-04 10:29 31.27726 121.35716 10412 ft 362 kts 108°
2026-05-04 10:29 31.26888 121.38476 10052 ft 357 kts 108°
2026-05-04 10:29 31.26061 121.41197 9669 ft 352 kts 108°
2026-05-04 10:29 31.25319 121.43641 9336 ft 348 kts 108°
2026-05-04 10:30 31.24513 121.46292 8982 ft 343 kts 108°
2026-05-04 10:30 31.23717 121.48906 8638 ft 339 kts 108°
2026-05-04 10:30 31.23191 121.50647 8413 ft 335 kts 106°
2026-05-04 10:30 31.22874 121.53305 8067 ft 327 kts 84°
2026-05-04 10:31 31.23329 121.55859 7746 ft 319 kts 70°
2026-05-04 10:31 31.24155 121.58226 7406 ft 311 kts 52°
2026-05-04 10:32 31.34868 121.59111 5605 ft 267 kts 339°
2026-05-04 10:33 31.36646 121.58538 5344 ft 265 kts 352°
2026-05-04 10:33 31.38466 121.58846 5117 ft 267 kts 19°
2026-05-04 10:33 31.39995 121.60083 4790 ft 273 kts 45°
2026-05-04 10:33 31.40964 121.61999 4496 ft 276 kts 69°
2026-05-04 10:34 31.41419 121.64157 4208 ft 276 kts 76°
2026-05-04 10:34 31.41808 121.66346 3908 ft 275 kts 76°
2026-05-04 10:34 31.42057 121.68560 3716 ft 272 kts 92°
2026-05-04 10:34 31.41526 121.70636 3635 ft 263 kts 121°
2026-05-04 10:35 31.40317 121.72181 3471 ft 257 kts 146°
2026-05-04 10:35 31.38719 121.73070 3192 ft 254 kts 164°
2026-05-04 10:35 31.37058 121.73685 2908 ft 253 kts 164°
2026-05-04 10:35 31.35350 121.74312 2617 ft 253 kts 164°
2026-05-04 10:36 31.33706 121.74913 2410 ft 248 kts 163°
2026-05-04 10:36 31.32066 121.75527 2019 ft 248 kts 163°
2026-05-04 10:36 31.30431 121.76149 1935 ft 243 kts 163°
2026-05-04 10:36 31.28851 121.76751 1895 ft 232 kts 163°
2026-05-04 10:37 31.27351 121.77321 1880 ft 220 kts 163°
2026-05-04 10:37 31.25941 121.77856 1902 ft 205 kts 163°
2026-05-04 10:37 31.24631 121.78352 1836 ft 193 kts 164°
2026-05-04 10:37 31.23358 121.78834 1598 ft 190 kts 163°
2026-05-04 10:39 31.16625 121.81385 214 ft 145 kts 160°
2026-05-04 10:39 31.15671 121.81748 28 ft 144 kts 159°
2026-05-04 10:39 31.14876 121.82047 18 ft 90 kts 162°
2026-05-04 10:40 31.14505 121.82170 20 ft 33 kts 172°
2026-05-04 10:40 31.14287 121.82154 19 ft 30 kts 189°
2026-05-04 10:40 31.14106 121.82132 20 ft 24 kts 167°
2026-05-04 10:40 31.13948 121.82184 20 ft 23 kts 162°
2026-05-04 10:41 31.13798 121.82240 19 ft 22 kts 162°
2026-05-04 10:41 31.13653 121.82295 20 ft 22 kts 163°
2026-05-04 10:41 31.13511 121.82346 21 ft 21 kts 162°
2026-05-04 10:41 31.13370 121.82368 20 ft 21 kts 185°
2026-05-04 10:42 31.13239 121.82384 19 ft 11 kts 165°
2026-05-04 10:42 31.13178 121.82350 19 ft 11 kts 245°
2026-05-04 10:42 31.13155 121.82268 21 ft 11 kts 252°
2026-05-04 10:42 31.13127 121.82170 21 ft 15 kts 252°
2026-05-04 10:43 31.13089 121.82035 19 ft 15 kts 252°
2026-05-04 10:44 31.13505 121.81661 22 ft 12 kts 256°
2026-05-04 10:45 31.13484 121.81572 20 ft 11 kts 254°
2026-05-04 10:45 31.13463 121.81489 19 ft 10 kts 254°
2026-05-04 10:45 31.13456 121.81460 21 ft 0 kts 254°